| time (UTC) | temp F | wind direction | speed knots | gust knots | rain 1hr in | rain 24hr in | rain mn in | humidity % | barometer mb |
| 20260503201530 | 58 | 308 | 1.7 | 9.6 | 0.00 | 0.00 | 0.00 | 35 | 1011.6 |
| 20260503200029 | 58 | 279 | 4.3 | 10.4 | 0.00 | 0.00 | 0.00 | 38 | 1011.7 |
| 20260503194528 | 57 | 292 | 5.2 | 13.9 | 0.00 | 0.00 | 0.00 | 33 | 1012.0 |
| 20260503193028 | 57 | 242 | 3.5 | 12.2 | 0.00 | 0.00 | 0.00 | 38 | 1012.0 |
| 20260503191534 | 57 | 180 | 3.5 | 12.2 | 0.00 | 0.00 | 0.00 | 37 | 1012.0 |
| 20260503190028 | 57 | 267 | 4.3 | 12.2 | 0.00 | 0.00 | 0.00 | 36 | 1012.2 |
| 20260503184529 | 57 | 293 | 5.2 | 12.2 | 0.00 | 0.00 | 0.00 | 35 | 1012.4 |
| 20260503183028 | 57 | 0 | 3.5 | 11.3 | 0.00 | 0.00 | 0.00 | 39 | 1012.5 |
| 20260503181529 | 56 | 278 | 3.5 | 18.2 | 0.00 | 0.00 | 0.00 | 39 | 1012.6 |
| 20260503180030 | 55 | 277 | 2.6 | 12.2 | 0.00 | 0.00 | 0.00 | 40 | 1012.5 |
| 20260503174527 | 54 | 277 | 3.5 | 12.2 | 0.00 | 0.00 | 0.00 | 40 | 1012.8 |
| 20260503173029 | 54 | 0 | 4.3 | 9.6 | 0.00 | 0.00 | 0.00 | 40 | 1012.7 |
| 20260503171528 | 54 | 301 | 2.6 | 9.6 | 0.00 | 0.00 | 0.00 | 44 | 1013.0 |
| 20260503081531 | 37 | 0 | 0.0 | 0.0 | 0.00 | 0.01 | 0.00 | 85 | 1011.1 |
| 20260503071526 | 37 | 0 | 0.0 | 0.0 | 0.00 | 0.01 | 0.00 | 83 | 1010.6 |
| 20260503054535 | 41 | 0 | 0.0 | 0.0 | 0.00 | 0.01 | 0.00 | 80 | 1011.2 |
| 20260503053028 | 41 | 0 | 0.0 | 0.0 | 0.00 | 0.01 | 0.00 | 75 | 1011.3 |
| 20260503051529 | 42 | 0 | 0.0 | 0.0 | 0.00 | 0.01 | 0.00 | 77 | 1011.3 |
| 20260503050036 | 43 | 0 | 0.0 | 0.0 | 0.00 | 0.01 | 0.00 | 79 | 1011.4 |
| 20260503044531 | 43 | 0 | 0.0 | 1.7 | 0.00 | 0.01 | 0.00 | 76 | 1011.5 |
| 20260503043030 | 44 | 0 | 0.0 | 0.0 | 0.00 | 0.01 | 0.00 | 76 | 1011.6 |
| 20260503041535 | 45 | 0 | 0.0 | 0.0 | 0.00 | 0.01 | 0.00 | 75 | 1011.6 |
| 20260503040028 | 45 | 0 | 0.0 | 0.9 | 0.00 | 0.01 | 0.00 | 71 | 1011.7 |
| 20260503034528 | 46 | 0 | 0.0 | 0.0 | 0.00 | 0.01 | 0.01 | 76 | 1011.6 |
| 20260503033028 | 46 | 0 | 0.0 | 0.0 | 0.00 | 0.01 | 0.01 | 67 | 1011.6 |
| 20260503031530 | 47 | 0 | 0.0 | 0.0 | 0.00 | 0.01 | 0.01 | 64 | 1011.7 |
| 20260503030033 | 47 | 0 | 0.0 | 0.0 | 0.00 | 0.01 | 0.01 | 65 | 1011.7 |
| 20260503024530 | 47 | 0 | 0.0 | 1.7 | 0.00 | 0.01 | 0.01 | 71 | 1011.9 |
| 20260503023031 | 48 | 0 | 0.0 | 2.6 | 0.00 | 0.01 | 0.01 | 70 | 1011.9 |
| 20260503021528 | 49 | 0 | 0.0 | 2.6 | 0.00 | 0.01 | 0.01 | 64 | 1012.0 |
| 20260503020026 | 50 | 0 | 0.0 | 0.0 | 0.00 | 0.01 | 0.01 | 54 | 1011.9 |
| 20260503014530 | 51 | 0 | 0.0 | 5.2 | 0.00 | 0.01 | 0.01 | 52 | 1011.7 |
| 20260503013035 | 51 | 0 | 0.0 | 2.6 | 0.00 | 0.01 | 0.01 | 52 | 1011.7 |
| 20260503011530 | 52 | 250 | 0.0 | 3.5 | 0.00 | 0.01 | 0.01 | 50 | 1011.7 |
| 20260503010032 | 52 | 0 | 0.0 | 3.5 | 0.00 | 0.01 | 0.01 | 51 | 1011.6 |
| 20260503004528 | 52 | 0 | 0.0 | 2.6 | 0.00 | 0.01 | 0.01 | 49 | 1011.3 |
| 20260503003030 | 53 | 0 | 0.0 | 5.2 | 0.00 | 0.01 | 0.01 | 46 | 1011.1 |
| 20260503001528 | 53 | 0 | 0.0 | 2.6 | 0.00 | 0.01 | 0.01 | 45 | 1011.0 |
| 20260503000029 | 54 | 0 | 0.0 | 6.1 | 0.00 | 0.01 | 0.01 | 43 | 1010.8 |
| 20260502234529 | 55 | 0 | 0.0 | 6.1 | 0.00 | 0.01 | 0.01 | 44 | 1010.8 |
| 20260502233027 | 55 | 0 | 0.0 | 7.0 | 0.00 | 0.01 | 0.01 | 41 | 1010.7 |
| 20260502231530 | 56 | 0 | 0.9 | 7.0 | 0.00 | 0.01 | 0.01 | 42 | 1010.8 |
| 20260502230033 | 56 | 296 | 1.7 | 7.0 | 0.00 | 0.01 | 0.01 | 44 | 1010.7 |
| 20260502224529 | 57 | 292 | 0.0 | 6.1 | 0.00 | 0.01 | 0.01 | 42 | 1010.6 |
| 20260502223027 | 57 | 309 | 0.9 | 8.7 | 0.00 | 0.01 | 0.01 | 40 | 1010.5 |
| 20260502221532 | 58 | 0 | 3.5 | 8.7 | 0.00 | 0.01 | 0.01 | 39 | 1010.4 |
| 20260502220029 | 58 | 0 | 0.0 | 4.3 | 0.00 | 0.01 | 0.01 | 40 | 1010.3 |
| 20260502214528 | 59 | 309 | 1.7 | 7.0 | 0.00 | 0.01 | 0.01 | 39 | 1010.4 |
| 20260502213029 | 58 | 261 | 1.7 | 8.7 | 0.00 | 0.01 | 0.01 | 42 | 1010.3 |
| 20260502211528 | 58 | 311 | 1.7 | 6.1 | 0.00 | 0.01 | 0.01 | 39 | 1010.2 |
| 20260502210030 | 58 | 0 | 0.0 | 3.5 | 0.00 | 0.01 | 0.01 | 41 | 1010.0 |
| 20260502204529 | 58 | 261 | 1.7 | 6.1 | 0.00 | 0.01 | 0.01 | 40 | 1009.9 |
| 20260502203028 | 59 | 0 | 0.0 | 7.8 | 0.00 | 0.01 | 0.01 | 43 | 1010.1 |